Location: Molveno
(46.1500°N, 10.9667°E)
Time: 07:35:37
(UTC+00:00)

PSLV R/B - Pass Details

Date: 05 July 2020
Orbit: 597 x 702 km, 97.9° (Epoch: 05 August)

Event Time Altitude Azimuth Distance (km) Brightness Sun altitude
Rises 23:29:33 0° 16° (NNE) 2,855 8.4 -21.2°
Reaches altitude 10° 23:31:45 10° 20° (NNE) 1,951 7.2 -21.1°
Maximum altitude 23:35:55 60° 101° (E) 696 3.7 -21.1°
Enters shadow 23:36:34 53° 141° (SE) 750 3.6 -21.1°
